Kahului, HI

9:38 AM HST on February 08, 2016 (GMT -1000)
Kahului

Weather History for PHOG - June, 2013

Change the Weather History Date:

Thursday, June 27, 2013

  Actual Average Record
Temperature  
Mean Temperature 80 °F 79 °F  
Max Temperature 88 °F 87 °F 93 °F (1981)
Min Temperature 72 °F 70 °F 61 °F (1951)
Degree Days  
Heating Degree Days 0 0  
Month to date heating degree days 0 0  
Since 1 June heating degree days 0 0  
Since 1 July heating degree days 0 0  
Cooling Degree Days 15 13  
Month to date cooling degree days 401 345  
Year to date cooling degree days 1785 1604  
Since 1 June cooling degree days 401 345  
Growing Degree Days 30 (Base 50)    
Moisture  
Dew Point 66 °F    
Average Humidity 67    
Maximum Humidity 84    
Minimum Humidity 50    
Precipitation  
Precipitation 0.00 in 0.00 in 0.21 in (1958)
Month to date precipitation 0.26 0.17  
Year to date precipitation 7.25 9.67  
Snow  
Snow 0.00 in - - ()
Month to date snowfall 0.0  
Since 1 June snowfall 0.0  
Since 1 July snowfall 0.0  
Snow Depth 0.00 in    
Sea Level Pressure  
Sea Level Pressure 30.02 in    
Wind  
Wind Speed 16 mph (NE)    
Max Wind Speed 29 mph    
Max Gust Speed 33 mph    
Visibility 10 miles    
Events Rain    
T = Trace of Precipitation, MM = Missing Value Source: NWS Daily Summary

Daily Weather History Graph

Daily Weather History Graph

Search for Another Location

Airport or City:

Trip Planner

Search our weather history database for the weather conditions in past years. The results will help you decide how hot, cold, wet, or windy it might be!

Date:

Astronomy

Jun. 27, 2013 Rise Set
Actual Time 5:47 AM HST 7:10 PM HST
Civil Twilight 5:22 AM HST 7:35 PM HST
Nautical Twilight 4:52 AM HST 8:04 PM HST
Astronomical Twilight 4:22 AM HST 8:35 PM HST
Moon 10:58 PM HST (6/27) 10:21 AM HST (6/27)
Length of Visible Light 14h 13m
Length of Day
13h 23m
Waning Gibbous, 74% of the Moon is Illuminated
Jun 27
Waning Gibbous
Jun 29
Last Quarter
Jul 7
New
Jul 15
First Quarter
Jul 22
Full

Hourly Weather History & Observations

Time (HST) Temp. Heat Index Dew Point Humidity Pressure Visibility Wind Dir Wind Speed Gust Speed Precip Events Conditions
12:54 AM 73.9 °F - 68.0 °F 82% 30.04 in 10.0 mi NE 10.4 mph - N/A   Clear
1:54 AM 73.0 °F - 66.9 °F 81% 30.03 in 10.0 mi NNE 10.4 mph - N/A   Clear
2:54 AM 73.0 °F - 66.9 °F 81% 30.02 in 10.0 mi NE 6.9 mph - N/A   Clear
3:54 AM 73.0 °F - 66.9 °F 81% 30.01 in 10.0 mi NNE 12.7 mph - N/A   Clear
4:54 AM 73.9 °F - 66.0 °F 76% 30.01 in 10.0 mi NNE 10.4 mph - N/A   Clear
5:54 AM 73.0 °F - 66.0 °F 79% 30.01 in 10.0 mi NNE 11.5 mph - N/A   Partly Cloudy
6:54 AM 75.0 °F - 64.0 °F 69% 30.03 in 10.0 mi NE 6.9 mph - N/A   Partly Cloudy
7:54 AM 80.1 °F 82.1 °F 66.0 °F 62% 30.04 in 10.0 mi NE 13.8 mph - N/A   Partly Cloudy
8:54 AM 82.9 °F 84.4 °F 64.0 °F 53% 30.04 in 10.0 mi NE 13.8 mph - N/A   Clear
9:54 AM 84.0 °F 87.0 °F 68.0 °F 58% 30.04 in 10.0 mi NE 20.7 mph - N/A   Partly Cloudy
10:54 AM 86.0 °F 88.8 °F 66.9 °F 53% 30.03 in 10.0 mi NE 23.0 mph - N/A   Partly Cloudy
11:54 AM 87.1 °F 89.2 °F 66.0 °F 49% 30.02 in 10.0 mi NE 20.7 mph - N/A   Partly Cloudy
12:54 PM 86.0 °F 89.4 °F 68.0 °F 55% 30.01 in 10.0 mi NNE 25.3 mph 31.1 mph N/A   Partly Cloudy
1:54 PM 87.1 °F 91.3 °F 69.1 °F 55% 29.99 in 10.0 mi NE 25.3 mph 32.2 mph N/A   Partly Cloudy
2:54 PM 87.1 °F 89.9 °F 66.9 °F 51% 29.98 in 10.0 mi NE 23.0 mph 32.2 mph N/A   Partly Cloudy
3:54 PM 86.0 °F 87.6 °F 64.9 °F 49% 29.98 in 10.0 mi NE 24.2 mph 31.1 mph N/A   Partly Cloudy
4:54 PM 84.0 °F 86.3 °F 66.0 °F 55% 29.98 in 10.0 mi NE 24.2 mph 33.4 mph N/A   Partly Cloudy
5:54 PM 81.0 °F 83.3 °F 66.9 °F 62% 29.99 in 10.0 mi NE 16.1 mph 25.3 mph N/A   Partly Cloudy
6:54 PM 79.0 °F - 66.0 °F 64% 30.01 in 10.0 mi NE 20.7 mph - N/A   Partly Cloudy
7:54 PM 75.9 °F - 66.0 °F 71% 30.02 in 10.0 mi NE 9.2 mph - N/A   Clear
8:54 PM 75.9 °F - 66.9 °F 74% 30.03 in 10.0 mi NNE 17.3 mph - 0.00 in   Clear
9:54 PM 73.9 °F - 64.9 °F 73% 30.04 in 10.0 mi East 8.1 mph 16.1 mph 0.00 in   Clear
10:54 PM 75.0 °F - 64.0 °F 69% 30.05 in 10.0 mi NE 10.4 mph - N/A   Clear
11:54 PM 71.1 °F - 63.0 °F 75% 30.04 in 10.0 mi ENE 3.5 mph - 0.00 in Rain Light Rain